Probability
0 0 1 2 2 2 3 4 5 8 9 7 7 6 2 0 0 0 0 0 0 0 0 0 0 0 0 0 0 0 0 0 0 0 0 0 0 0 0 0 0 0 0 0
0 0 1 2 2 2 5 6 6 8 8 6 6 6 2 0 0 0 0 0 0 0 0 0 0 0 0 0 0 0 0 0 0 0 0 0 0 0 0 0 0 0 0 0
0 0 0 1 1 1 3 5 6 5 4 3 4 3 1 0 0 0 0 0 0 0 0 0 0 0 0 0 0 0 0 0 0 0 0 0 0 0 0 0 0 0 0 0
0 0 0 0 0 0 1 2 3 2 1 1 1 1 0 0 0 0 0 0 0 0 0 0 0 0 0 0 0 0 0 0 0 0 0 0 0 0 0 0 0 0 0 0
0 0 0 0 0 0 0 0 1 1 0 0 0 0 0 0 0 0 0 0 0 0 0 0 0 0 0 0 0 0 0 0 0 0 0 0 0 0 0 0 0 0 0 0
0 0 0 0 0 0 0 0 0 0 0 0 0 0 0 0 0 0 0 0 0 0 0 0 0 0 0 0 0 0 0 0 0 0 0 0 0 0 0 0 0 0 0 0
0 0 0 0 0 0 0 0 0 0 0 0 0 0 0 0 0 0 0 0 0 0 0 0 0 0 0 0 0 0 0 0 0 0 0 0 0 0 0 0 0 0 0 0
0 0 0 0 0 0 0 0 0 0 0 0 0 0 0 0 0 0 0 0 0 0 0 0 0 0 0 0 0 0 0 0 0 0 0 0 0 0 0 0 0 0 0 0
0 0 0 0 0 0 0 0 0 0 0 0 0 0 0 0 0 0 0 0 0 0 0 0 0 0 0 0 0 0 0 0 0 0 0 0 0 0 0 0 0 0 0 0
0 0 0 0 0 0 0 0 0 0 0 0 0 0 0 0 0 0 0 0 0 0 0 0 0 0 0 0 0 0 0 0 0 0 0 0 0 0 0 0 0 0 0 0
0 0 0 0 0 0 0 0 0 0 0 0 0 0 0 0 0 0 0 0 0 0 0 0 0 0 0 0 0 0 0 0 0 0 0 0 0 0 0 0 0 0 0 0
0 0 0 0 0 0 0 0 0 0 0 0 0 0 0 0 0 0 0 0 0 0 0 0 0 0 0 0 0 0 0 0 0 0 0 0 0 0 0 0 0 0 0 0
0 0 0 0 0 0 0 0 0 0 0 0 0 0 0 0 0 0 0 0 0 0 0 0 0 0 0 0 0 0 0 0 0 0 0 0 0 0 0 0 0 0 0 0
0 0 0 0 0 0 0 0 0 0 0 0 0 0 0 0 0 0 0 0 0 0 0 0 0 0 0 0 0 0 0 0 0 0 0 0 0 0 0 0 0 0 0 0
0 0 0 0 0 0 0 0 0 0 0 0 0 0 0 0 0 0 0 0 0 0 0 0 0 0 0 0 0 0 0 0 0 0 0 0 0 0 0 0 0 0 0 0
0 0 0 0 0 0 0 0 0 0 0 0 0 0 0 0 0 0 0 0 0 0 0 0 0 0 0 0 0 0 0 0 0 0 0 0 0 0 0 0 0 0 0 0
0 0 0 0 0 0 0 0 0 0 0 0 0 0 0 0 0 0 0 0 0 0 0 0 0 0 0 0 0 0 0 0 0 0 0 0 0 0 0 0 0 0 0 0
0 0 0 0 0 0 0 0 0 0 0 0 0 0 0 0 0 0 0 0 0 0 0 0 0 0 0 0 0 0 0 0 0 0 0 0 0 0 0 0 0 0 0 0
0 0 0 0 0 0 0 0 0 0 0 0 0 0 0 0 0 0 0 0 0 0 0 0 0 0 0 0 0 0 0 0 0 0 0 0 0 0 0 0 0 0 0 0
0 0 0 0 0 0 0 0 0 0 0 0 0 0 0 0 0 0 0 0 0 0 0 0 0 0 0 0 0 0 0 0 0 0 0 0 0 0 0 0 0 0 0 0
0 0 0 0 0 0 0 0 0 0 0 0 0 0 0 0 0 0 0 0 0 0 0 0 0 0 0 0 0 0 0 0 0 0 0 0 0 0 0 0 0 0 0 0
0 0 0 0 0 0 0 0 0 0 0 0 0 0 0 0 0 0 0 0 0 0 0 0 0 0 0 0 0 0 0 0 0 0 0 0 0 0 0 0 0 0 0 0
0 0 0 0 0 0 0 0 0 0 0 0 0 0 0 0 0 0 0 0 0 0 0 0 0 0 0 0 0 0 0 0 0 0 0 0 0 0 0 0 0 0 0 0
0 0 0 0 0 0 0 0 0 0 0 0 0 0 0 0 0 0 0 0 0 0 0 0 0 0 0 0 0 0 0 0 0 0 0 0 0 0 0 0 0 0 0 0
0 0 0 0 0 0 0 0 0 0 0 0 0 0 0 0 0 0 0 0 0 0 0 0 0 0 0 0 0 0 0 0 0 0 0 0 0 0 0 0 0 0 0 0
0 0 0 0 0 0 0 0 0 0 0 0 0 0 0 0 0 0 0 0 0 0 0 0 0 0 0 0 0 0 0 0 0 0 0 0 0 0 0 0 0 0 0 0
0 0 0 0 0 0 0 0 0 0 0 0 0 0 0 0 0 0 0 0 0 0 0 0 0 0 0 0 0 0 0 0 0 0 0 0 0 0 0 0 0 0 0 0
Wind_Speed
9 9 8 8 7 6 4 6 3 6 10 11 11 13 13 13 14 13 13 12 12 12 11 11 11 11 11 11 10 10 11 11 11 10 10 10 10 9 9 8 8 7 7 7
8 8 10 12 10 8 8 8 6 10 8 9 11 12 12 12 13 13 13 12 12 12 11 11 10 10 10 10 9 9 10 11 10 10 9 9 9 8 8 8 7 7 7 6
4 3 3 7 10 8 8 9 5 5 7 10 12 11 11 11 12 12 12 12 12 11 10 9 9 9 9 9 9 9 9 10 9 9 9 8 8 8 7 7 6 6 6 6
3 4 2 7 5 7 8 10 10 12 11 11 12 11 10 10 12 12 12 11 11 10 10 9 9 8 8 8 8 9 9 9 9 8 8 7 7 7 6 5 5 5 5 5
2 2 6 6 2 2 3 7 8 12 13 13 14 14 10 10 11 12 11 10 10 9 9 9 8 8 8 8 8 8 8 8 7 7 7 6 6 6 5 5 4 4 5 6
2 1 2 6 5 1 2 6 8 10 12 12 10 7 6 8 12 12 12 10 10 9 9 8 7 7 7 8 8 8 7 7 7 6 6 6 5 5 4 4 4 4 5 5
1 2 6 6 2 3 3 6 10 10 10 8 5 9 12 12 12 12 12 11 10 9 8 7 7 7 7 7 7 7 6 6 6 5 4 4 4 3 3 4 4 4 5 4
1 1 6 4 0 3 7 10 10 10 9 11 15 16 14 13 12 12 12 11 9 8 8 7 7 6 7 7 6 5 5 5 4 3 3 3 3 3 3 4 3 2 3 3
6 7 7 5 6 7 8 11 10 10 12 15 16 15 14 13 12 11 11 9 8 9 8 7 6 5 6 6 5 4 3 4 3 3 2 2 3 2 2 2 4 4 4 4
7 8 8 8 8 9 9 10 11 13 14 15 16 15 14 12 11 10 10 9 8 8 8 7 6 6 5 5 3 3 3 2 2 1 2 2 2 3 4 5 5 5 5 5
7 10 10 8 9 11 12 12 13 13 14 15 16 15 14 12 11 10 9 8 8 7 8 8 6 5 5 4 2 2 2 1 1 1 2 1 2 5 5 7 7 7 7 7
5 10 8 11 10 12 13 13 14 15 14 14 14 14 13 11 10 10 9 8 8 8 7 7 5 5 4 3 1 0 1 0 1 1 1 1 1 5 6 5 4 2 3 6
7 10 11 14 14 13 13 14 14 14 15 14 13 13 12 11 10 10 9 9 8 7 6 5 4 4 3 2 0 1 1 2 2 2 1 0 2 2 3 5 4 3 1 2
13 14 16 15 14 14 15 15 14 15 14 14 13 12 12 11 11 10 9 8 7 6 5 4 3 3 2 1 0 1 1 0 2 1 1 2 2 2 2 2 2 3 5 2
11 10 14 16 16 15 15 15 16 15 14 14 13 12 12 11 11 9 8 7 6 5 4 3 3 3 1 1 1 1 2 1 1 2 1 2 2 2 2 3 3 3 3 4
12 14 17 18 17 17 17 17 16 15 14 14 12 12 11 11 10 9 7 6 5 4 3 2 2 2 1 1 1 1 1 3 2 1 1 2 2 2 2 2 3 3 4 5
17 17 18 18 18 17 16 15 15 15 14 14 13 13 12 11 10 8 7 5 3 3 3 2 2 2 1 1 3 2 2 5 4 3 1 2 2 2 2 3 3 3 4 5
14 16 17 18 17 16 16 15 15 15 14 14 14 12 11 10 9 8 6 5 4 4 3 2 2 1 2 2 2 2 0 1 2 2 2 3 2 2 2 3 3 3 3 3
14 15 16 16 16 16 15 15 15 14 14 14 13 12 10 9 8 6 5 5 4 4 4 4 2 2 1 3 3 2 1 2 2 2 3 3 1 2 3 3 3 3 3 3
15 16 16 17 16 16 16 15 15 14 13 13 13 11 10 8 7 6 5 3 2 3 4 3 2 1 1 2 4 1 2 2 3 3 2 2 2 3 2 3 3 3 3 3
16 17 17 17 16 16 16 16 15 15 14 13 12 11 10 8 7 5 4 4 5 3 4 4 2 1 2 1 5 1 3 3 3 2 2 2 2 2 2 2 2 2 2 3
17 16 17 17 16 15 15 15 15 15 14 13 12 11 10 8 7 5 2 3 6 3 3 4 3 5 3 4 2 2 3 3 2 2 2 2 2 2 2 2 2 2 3 3
15 16 16 17 16 16 16 15 15 14 14 13 11 10 9 7 5 5 6 5 5 4 3 4 6 3 4 6 1 2 3 3 2 2 2 2 2 2 2 2 2 2 3 4
16 16 16 16 16 16 16 15 15 12 13 12 11 10 8 7 5 4 5 7 5 4 3 7 4 2 7 3 1 2 3 3 2 2 2 2 2 2 2 2 2 2 3 3
16 16 16 17 16 14 15 15 14 14 13 10 11 11 8 6 5 6 6 8 8 6 5 7 6 5 6 1 2 2 2 2 2 1 2 1 1 2 2 2 1 1 2 3
15 14 13 13 12 11 12 12 12 11 11 10 10 9 8 6 6 6 6 7 9 6 4 5 7 7 4 2 3 2 3 5 4 3 2 2 2 1 1 1 1 1 2 2
15 13 12 12 12 12 12 12 11 12 11 10 10 10 9 8 7 7 7 7 7 6 4 3 4 4 3 3 3 3 3 3 3 3 3 2 2 2 2 2 1 1 0 1
Wind_Direction
80 83 82 70 53 40 21 352 331 107 127 143 140 133 128 125 123 120 116 110 105 101 98 95 92 90 89 89 89 91 91 90 90 91 91 90 89 89 88 85 82 77 71 67
102 101 95 69 48 48 42 30 68 100 89 105 114 117 121 125 125 121 118 114 110 107 105 101 98 97 96 95 95 95 95 94 94 95 95 94 93 91 85 79 71 65 59 54
145 162 175 68 34 44 62 41 38 78 94 112 111 113 122 127 125 122 119 117 116 113 110 108 106 108 107 106 106 103 99 98 98 96 93 92 90 85 78 72 64 55 47 41
162 202 140 83 71 69 75 60 65 87 97 100 99 95 96 111 119 120 120 118 116 115 114 113 115 114 113 113 110 104 100 98 96 94 92 89 84 77 70 61 54 45 35 29
240 143 117 135 107 28 79 83 90 109 110 109 109 97 80 90 109 116 117 117 115 115 117 119 121 122 120 114 107 102 100 99 96 92 90 84 77 70 60 52 45 32 36 23
234 215 114 101 84 70 172 120 127 128 131 137 145 124 109 110 113 115 118 119 120 122 121 120 120 122 119 112 106 101 99 97 93 86 79 74 69 58 53 39 30 15 31 22
97 105 88 65 47 240 264 111 139 141 140 143 114 101 120 122 118 121 123 124 125 124 121 121 123 120 117 112 105 103 102 101 93 87 81 72 64 45 25 18 24 13 14 19
297 127 93 50 262 22 77 112 132 134 128 113 108 113 120 123 124 126 125 126 126 125 122 123 127 129 121 109 105 105 106 103 94 80 65 72 48 30 17 353 344 7 15 9
33 59 78 67 72 89 116 123 127 128 125 125 125 125 126 127 127 127 127 129 133 129 124 124 130 131 120 115 117 117 114 98 91 87 77 44 6 3 356 348 349 6 12 12
110 106 106 103 106 110 114 117 120 125 130 131 129 130 129 129 128 129 131 135 136 133 130 126 125 118 113 117 123 124 111 101 92 94 105 72 352 3 6 8 11 10 12 9
119 127 126 119 118 117 114 116 119 124 129 132 132 134 133 132 133 134 134 134 137 134 130 126 127 125 121 117 125 125 126 112 57 65 65 49 52 34 14 45 31 1 5 2
145 158 152 138 134 131 128 127 129 130 130 133 135 134 134 133 135 135 134 134 133 130 127 127 128 123 118 121 126 175 181 123 350 22 50 339 105 125 83 58 89 60 9 345
110 134 123 131 136 134 130 129 131 133 134 133 132 134 135 134 135 133 133 135 133 132 128 125 121 115 111 109 95 355 345 347 329 341 1 15 27 43 126 144 171 184 195 354
122 124 128 137 137 134 130 129 129 130 131 132 134 136 136 135 136 138 137 134 132 131 131 130 123 109 95 100 317 304 294 118 288 339 9 40 47 36 38 56 120 144 163 161
143 140 138 137 134 133 134 134 134 133 134 135 137 139 140 140 141 138 135 134 136 140 134 128 117 101 82 44 349 316 311 23 30 30 61 69 66 53 49 47 44 43 63 121
138 132 137 141 141 143 145 145 141 140 141 142 143 144 144 141 139 138 140 145 149 133 111 107 106 92 81 17 295 220 123 59 327 294 108 90 77 53 48 47 45 43 42 27
145 148 151 149 150 152 152 150 146 145 146 146 145 145 145 143 145 147 148 143 126 112 118 116 86 62 35 5 290 275 143 137 193 239 74 59 60 55 47 43 45 52 59 51
156 156 156 155 154 153 151 149 148 148 147 145 145 148 151 154 152 147 142 138 142 140 131 111 67 4 14 22 322 310 226 154 156 86 86 67 47 63 63 62 54 51 70 107
147 150 152 153 152 151 151 150 149 147 146 149 152 154 155 153 147 145 150 162 168 155 130 106 95 261 57 60 306 216 155 128 113 104 100 116 181 78 73 70 62 52 51 37
145 147 149 150 152 152 151 150 148 148 151 154 154 154 155 153 152 153 161 164 96 75 111 111 182 144 108 107 283 227 116 117 110 115 112 112 96 90 84 76 69 60 50 37
149 150 152 153 153 153 153 152 151 153 155 158 159 159 156 154 158 163 185 148 120 121 135 160 207 142 104 80 248 193 126 120 118 113 114 112 102 94 84 76 72 62 45 24
153 154 155 153 154 153 154 155 156 156 158 162 163 161 158 160 163 161 146 96 123 154 199 158 117 70 34 283 222 124 120 122 123 117 116 111 105 99 89 81 76 60 39 26
155 156 155 156 156 153 155 159 160 160 163 166 166 166 168 167 166 165 149 143 147 170 201 97 87 97 288 257 201 149 128 134 133 129 127 127 115 105 98 91 76 53 31 21
154 156 156 156 155 157 161 163 162 163 167 169 168 168 168 166 167 155 116 126 138 176 170 111 135 203 264 249 165 161 149 156 164 157 141 134 122 119 107 92 72 51 42 29
155 156 157 159 161 164 163 163 163 167 171 172 169 171 179 180 165 149 145 151 158 201 178 149 178 228 252 185 133 144 142 108 83 98 137 138 143 128 115 104 75 48 41 39
157 160 161 167 166 164 164 167 170 172 176 173 171 173 174 170 162 154 165 171 172 206 221 172 176 211 222 165 143 135 128 141 169 195 159 171 156 134 118 103 99 47 46 47
159 158 162 168 169 172 171 173 175 176 179 178 173 173 174 174 175 174 178 180 180 195 206 198 190 191 183 172 154 155 162 161 162 164 165 171 167 171 156 168 169 99 73 80